Location: New Plymouth
(39.0670°S, 174.0830°E)
Time: 23:38:52
(UTC+13:00)

Cosmos 2263 Rocket - Pass Details

Date: 24 January 2019
Orbit: 823 x 848 km, 71.0° (Epoch: 17 February)

Event Time Altitude Azimuth Distance (km) Brightness Sun altitude
Rises 21:36:33 0° 197° (SSW) 3,411 6.3 -9.3°
Reaches altitude 10° 21:39:08 10° 191° (S) 2,474 5.3 -9.7°
Maximum altitude 21:44:34 45° 118° (ESE) 1,147 2.7 -10.6°
Enters shadow 21:49:02 15° 50° (NE) 2,144 3.6 -11.3°
